"Pseudo-MPEC" for ZTF01nf

Created 2019 Mar 31 15:24:11 UT using Find_Orb

Click here for an explanation of pseudo-MPECs

 
 Astrometry: 
     ZTF01nf  C2018 11 15.32542004 32 51.13 +16 11 00.8                UNEOCPI41
     ZTF01nf  C2018 11 15.32576704 32 56.02 +16 11 57.3                UNEOCPI41
     ZTF01nf  C2018 11 15.34952404 38 45.86 +17 17 44.6          17.77RUNEOCPI41
     ZTF01nf  C2018 11 15.34987104 38 51.12 +17 18 42.1          17.77RUNEOCPI41
     ZTF01nf  C2018 11 15.45812205 15 07.33 +22 48 36.4                UNEOCPI41
     ZTF01nf  C2018 11 15.45846905 15 16.87 +22 49 47.3                UNEOCPI41

Station data:
(I41) Palomar Mountain--ZTF  (N33.357340 W116.859780)  US/California. 1.2-m
   f/2.44 Oschin Schmidt + CCD.

Orbital elements:  ZTF01nf
   Perigee 2018 Nov 14.679965 +/- 0.00239 TT = 16:19:09 (JD 2458437.179965)
Epoch 2018 Nov 15.0 TT = JDT 2458437.5                        Gray
M 120.40721599 +/- 0.58             (J2000 equator)
n 376.23157195 +/- 1                Peri.  200.98066 +/- 0.06
a 41017.2633 +/- 72.9               Node    37.37637 +/- 0.0018
e   0.7805021 +/- 0.000384          Incl.   32.97280 +/- 0.0054
P1377.85m/0.957d           H 34.4   G  0.15   U 12.7
q 9003.20195 +/- 28.5    Q 73031.3248 +/- 121
From 6 observations 2018 Nov. 15 (3.2 hr); mean residual 0".417
Residuals in arcseconds: 
181115 I41 .312+ .254+    181115 I41 .333+ .420+    181115 I41 .763+ .118+
181115 I41 .321- .269-    181115 I41 .323- .403-    181115 I41 .765- .120-

Ephemerides (geocentric):
Date (UTC) HH   RA              Dec         delta  elong  mag " sig PA
---- -- -- --  -------------   -----------  ------ -----  --- ---- ---
2018 11 15 00  02 58 36.741   +04 41 58.10   67505 165.4 18.4 85.7  64
2018 11 15 01  03 10 24.030   +06 34 13.72   70072 168.0 18.4 57.1  68
2018 11 15 02  03 21 33.701   +08 18 48.64   71825 169.9 18.4 37.6  72
2018 11 15 03  03 32 23.941   +09 58 22.52   72800 171.1 18.4 24.3  79
2018 11 15 04  03 43 10.075   +11 35 02.05   73013 171.2 18.4 15.6  90
2018 11 15 05  03 54 06.638   +13 10 36.80   72469 170.4 18.4 10.2 105
2018 11 15 06  04 05 29.150   +14 46 50.76   71158 168.7 18.4 7.33 123
2018 11 15 07  04 17 36.140   +16 25 32.49   69054 166.3 18.4 5.83 139
2018 11 15 08  04 30 52.095   +18 08 46.23   66118 163.4 18.4 4.84 151
2018 11 15 09  04 45 52.525   +19 59 06.46   62284 159.9 18.4 3.94 166
2018 11 15 10  05 03 33.970   +21 59 59.31   57457 155.8 18.4 4.04  23
2018 11 15 11  05 25 36.422   +24 16 13.60   51496 150.6 18.3 9.69  60
2018 11 15 12  05 55 22.261   +26 54 29.20   44183 143.7 18.2 29.4  71
2018 11 15 13  06 41 09.609   +30 00 40.98   35165 133.5 18.0 94.2  78
2018 11 15 14  08 11 07.044   +32 53 20.10   23850 114.5 17.7  386  89
2018 11 15 15  12 55 50.830   +14 26 39.69   10551  48.8 19?? 3599 120
2018 11 15 16  22 21 44.339   -29 46 10.41   16733  93.1 17.6 2441  75
2018 11 15 17  00 34 29.800   -17 17 18.52   29508 125.3 17.8 1142  61
2018 11 15 18  01 24 10.784   -10 17 21.22   39652 139.0 18.1  814  57
2018 11 15 19  01 53 46.146   -05 42 05.00   47812 147.3 18.2  671  56
2018 11 15 20  02 15 02.315   -02 17 26.74   54455 153.3 18.3  592  56
2018 11 15 21  02 31 57.914   +00 27 06.85   59861 157.9 18.4  544  56
2018 11 15 22  02 46 20.232   +02 46 41.52   64206 161.8 18.4  512  56
2018 11 15 23  02 59 06.778   +04 49 47.66   67608 165.0 18.4  492  56
2018 11 16 00  03 10 52.604   +06 41 43.28   70145 167.7 18.4  479  56
2018 11 16 01  03 22 01.553   +08 26 04.02   71871 169.8 18.4  473  57
2018 11 16 02  03 32 51.668   +10 05 28.07   72819 171.2 18.4  474  57
2018 11 16 03  03 43 38.219   +11 42 01.29   73006 171.6 18.4  481  58
2018 11 16 04  03 54 35.751   +13 17 32.83   72435 171.0 18.4  495  59
2018 11 16 05  04 05 59.861   +14 53 46.57   71096 169.4 18.4  518  59
2018 11 16 06  04 18 09.245   +16 32 31.26   68965 167.1 18.4  552  60
2018 11 16 07  04 31 28.690   +18 15 51.64   65998 164.2 18.4  605  62
2018 11 16 08  04 46 34.266   +20 06 23.17   62130 160.7 18.4  684  63
2018 11 16 09  05 04 23.598   +22 07 33.46   57266 156.5 18.4  808  65
2018 11 16 10  05 26 39.014   +24 24 13.38   51262 151.3 18.3 1016  67
2018 11 16 11  05 56 48.769   +27 03 03.04   43896 144.3 18.1 1406  70
2018 11 16 12  06 43 29.790   +30 09 32.73   34808 133.9 17.9 2298  76
2018 11 16 13  08 16 19.596   +32 56 06.21   23399 114.4 17.6 5353  88
2018 11 16 14  13 15 06.528   +11 37 59.36   10198  44.3 19?? 510' 121
2018 11 16 15  22 30 53.602   -29 12 11.48   17226  94.2 17.6 179'  74
2018 11 16 16  00 37 02.229   -16 55 07.36   29907 125.2 17.8 3987  61
2018 11 16 17  01 25 32.586   -10 02 16.12   39970 138.5 18.1 2425  58
2018 11 16 18  01 54 42.509   -05 30 13.51   48071 146.8 18.3 1792  57
2018 11 16 19  02 15 46.375   -02 07 20.20   54666 152.7 18.4 1462  57
2018 11 16 20  02 32 35.074   +00 36 09.40   60032 157.4 18.4 1267  56
2018 11 16 21  02 46 53.216   +02 55 01.93   64342 161.3 18.5 1143  56
2018 11 16 22  02 59 37.165   +04 57 38.94   67712 164.6 18.5 1063  57
2018 11 16 23  03 11 21.423   +06 49 13.84   70221 167.3 18.4 1011  57
2018 11 17 00  03 22 29.546   +08 33 19.71   71919 169.6 18.4  981  57
2018 11 17 01  03 33 19.434   +10 12 33.29   72840 171.3 18.4  969  58
2018 11 17 02  03 44 06.299   +11 48 59.59   73000 172.0 18.3  975  58
2018 11 17 03  03 55 04.695   +13 24 27.33   72402 171.6 18.3  998  59
2018 11 17 04  04 06 30.295   +15 00 40.28   71036 170.1 18.4 1041  60
2018 11 17 05  04 18 41.958   +16 39 27.37   68876 167.9 18.4 1111  61
2018 11 17 06  04 32 04.773   +18 22 53.86   65879 165.0 18.4 1217  62
2018 11 17 07  04 47 15.372   +20 13 36.17   61978 161.5 18.4 1378  63
2018 11 17 08  05 05 12.473   +22 15 03.47   57077 157.3 18.3 1630  65
2018 11 17 09  05 27 40.779   +24 32 08.70   51029 152.0 18.2 2052  67
2018 11 17 10  05 58 14.567   +27 11 32.14   43610 145.0 18.1 2843  71
2018 11 17 11  06 45 50.301   +30 18 17.77   34451 134.4 17.9 4657  76